Wind_Speed
11 11 11 11 11 10 10 9 8 6 5 3 3 3 5 6 8 8 7 6 6 6 6 7 7 6 6 4 5 7 8 8 9 9 8 8 7 6 6 5 6 6 6 5 5 4 4 3 2 1 1 1 1 2 2 2 2 3 4 5 7 12 12 11 10 10 9 7 6 7 8 9 8 5 4 4 4 2 1 1 3 7 11 16 21 26 32 35
13 13 12 12 11 10 9 8 7 5 4 4 4 6 8 9 9 9 7 6 6 6 7 8 8 7 7 6 6 6 8 8 9 9 8 8 7 6 5 5 5 5 5 5 5 4 3 2 1 1 1 1 0 0 0 0 2 3 4 6 9 12 13 13 12 11 10 7 5 6 7 8 8 6 4 2 2 1 2 3 6 10 13 17 20 25 31 34
13 13 12 12 11 10 9 7 6 5 5 6 8 9 9 10 9 7 5 5 5 6 7 8 8 7 7 7 7 7 8 9 10 10 8 7 7 5 5 5 4 3 4 4 4 3 2 2 1 2 2 3 3 2 1 1 2 4 5 6 10 11 12 12 12 12 11 8 5 5 6 7 7 6 4 2 1 2 5 6 9 12 15 18 20 24 30 34
12 12 12 11 10 9 8 7 6 6 7 8 10 9 9 8 7 5 4 4 4 4 5 6 7 8 7 8 9 9 10 10 10 10 9 8 7 6 5 4 3 3 3 3 3 3 3 3 3 3 4 4 3 3 2 2 3 6 7 7 10 10 10 10 10 11 10 8 6 5 5 5 5 4 2 1 1 4 6 8 11 14 16 18 21 24 29 33
12 12 11 11 10 9 9 9 9 9 9 9 9 9 8 7 6 5 5 5 4 4 4 5 5 7 9 10 11 11 11 11 11 10 9 8 7 6 5 4 4 4 4 4 4 4 4 4 4 4 5 4 2 3 3 4 5 8 9 10 10 9 8 8 8 10 8 6 6 4 3 3 3 2 0 1 3 6 8 10 13 15 17 19 22 24 28 33
13 13 13 12 12 12 11 11 10 10 10 11 10 9 9 8 7 6 6 5 5 5 6 6 5 6 8 10 11 11 10 10 11 10 9 9 7 7 6 5 5 5 4 5 5 5 4 4 3 3 4 4 3 4 5 7 7 6 8 11 10 9 8 6 7 8 7 5 4 3 2 1 0 1 2 3 5 8 10 12 14 16 18 20 22 25 27 32
16 15 15 14 13 13 12 11 10 10 11 11 11 9 8 6 5 4 4 4 5 6 7 8 7 8 8 10 11 11 11 13 13 12 11 9 8 8 7 6 6 5 5 4 4 4 4 3 3 4 4 4 4 6 7 7 8 3 4 9 10 10 8 6 7 6 5 3 3 3 2 2 3 3 4 5 7 9 11 12 15 17 18 20 21 24 26 30
16 15 15 14 13 12 12 11 11 11 11 10 9 8 6 5 4 4 3 3 4 6 8 9 9 10 11 13 14 13 14 15 14 12 11 9 8 7 7 6 5 5 5 4 4 4 4 4 3 4 4 5 5 7 6 7 8 4 4 10 11 11 8 5 6 4 3 3 4 4 4 4 5 6 6 7 8 11 12 14 16 17 18 20 21 24 25 29
15 14 14 13 12 12 12 11 11 10 10 10 9 8 8 7 7 6 4 4 5 7 9 10 10 11 13 15 14 12 13 15 14 12 10 7 6 6 5 5 3 4 5 5 4 4 5 4 4 4 4 5 5 6 6 7 8 7 9 13 13 12 9 7 6 3 3 4 5 5 5 5 5 6 6 8 10 11 13 14 16 17 18 19 21 24 24 28
15 14 14 13 13 13 12 11 11 11 11 11 10 10 10 9 9 9 8 7 7 9 11 12 12 12 14 13 10 11 14 14 12 11 8 6 5 5 5 5 3 3 4 4 4 4 5 5 4 4 4 4 6 7 7 8 9 10 12 14 14 12 10 9 8 6 5 4 5 7 6 6 6 6 7 7 9 10 11 13 15 16 18 19 21 23 24 27
16 15 15 14 14 14 13 13 12 12 12 12 12 12 12 12 12 13 13 12 12 12 12 13 13 12 13 11 9 13 15 12 11 10 8 7 5 5 6 6 5 5 5 4 3 4 5 6 5 5 5 5 7 9 9 10 11 12 11 10 11 10 9 9 8 8 6 5 7 8 7 6 7 7 8 9 10 10 11 13 14 16 17 19 20 22 23 25
17 17 16 16 17 17 18 18 17 17 16 15 15 15 15 15 15 16 16 16 16 16 16 15 13 12 12 10 11 15 15 12 11 10 8 8 7 7 7 8 7 7 9 7 4 6 7 7 6 5 7 6 7 10 10 11 11 11 10 7 6 6 5 6 6 6 6 6 7 8 8 8 9 10 10 10 11 11 11 12 14 16 17 19 20 22 23 24
19 19 19 19 20 20 19 18 18 18 18 18 18 18 19 19 19 19 18 18 19 18 18 16 15 14 11 12 15 16 15 13 13 11 11 11 9 9 9 9 9 8 10 9 7 9 8 8 7 5 7 6 5 8 9 10 10 9 9 6 4 3 2 3 3 3 5 5 5 6 7 9 11 12 11 11 10 10 11 12 14 16 17 19 20 22 23 24
19 19 19 19 18 18 17 17 17 18 18 19 19 19 19 20 21 21 20 20 19 18 17 15 15 12 10 15 19 16 16 16 14 12 12 13 11 9 11 11 10 10 11 10 10 11 10 11 7 4 9 8 5 8 8 10 10 8 8 5 3 2 1 2 2 3 4 5 6 7 7 8 9 10 10 10 10 10 11 12 14 16 18 19 20 22 23 24
19 18 17 17 17 17 17 18 19 20 20 19 19 18 19 20 21 21 21 21 21 20 18 17 16 13 13 19 21 17 18 17 13 12 13 14 11 9 12 12 10 11 11 9 10 10 11 12 7 3 9 9 7 7 7 9 9 8 7 4 3 2 1 2 2 3 4 6 7 7 7 7 7 8 9 9 10 11 12 13 14 16 17 19 20 22 23 24
19 18 18 17 17 17 17 17 18 19 19 19 19 19 19 19 20 20 21 21 21 21 19 19 19 16 18 23 22 19 19 16 13 14 15 15 12 10 12 12 10 11 9 8 9 10 11 10 4 4 9 9 9 7 7 9 8 8 7 5 4 3 2 2 3 4 5 7 7 7 7 6 6 8 9 10 12 13 14 14 14 16 17 18 19 21 23 24
21 21 20 20 18 17 16 16 17 17 17 18 18 19 19 19 19 20 20 20 20 20 20 19 18 17 21 24 22 20 18 16 16 17 16 15 14 12 12 11 10 10 9 8 10 11 10 9 5 5 7 8 8 7 6 8 8 7 6 5 4 4 4 4 4 5 6 7 7 7 6 4 5 7 9 11 13 14 15 15 15 15 16 18 19 21 23 25
22 22 23 23 22 20 18 17 17 17 17 17 18 18 18 18 18 18 19 18 17 17 17 16 16 19 23 23 20 19 17 16 17 16 15 14 13 13 12 12 11 10 10 10 11 11 9 8 6 7 8 7 7 6 5 6 6 6 5 4 3 3 4 5 5 5 6 6 6 6 5 4 5 7 9 11 14 15 16 16 16 16 17 18 19 21 23 26
25 25 25 24 24 23 22 22 21 21 20 20 21 21 21 21 19 21 22 20 19 19 18 16 17 22 25 22 21 20 19 19 17 16 15 14 13 13 11 11 11 11 11 11 12 12 9 8 9 9 9 8 6 6 6 6 5 4 3 2 2 2 4 5 5 6 6 5 4 5 5 5 7 8 10 12 14 16 17 18 18 18 18 18 20 22 24 27
26 27 27 27 26 26 25 23 22 22 22 22 23 22 21 20 20 23 23 22 24 25 23 21 21 24 24 21 20 20 19 19 17 16 15 14 14 13 12 12 12 12 12 11 12 12 10 11 13 11 9 8 6 6 5 4 3 2 1 1 2 3 4 4 5 5 6 5 3 4 5 6 8 10 12 13 15 17 18 19 20 20 21 20 21 23 25 28
22 23 25 26 27 27 26 25 23 21 21 22 22 20 17 15 17 20 19 22 27 27 25 23 23 22 21 19 18 17 17 16 15 15 14 14 13 12 12 12 11 13 14 12 13 13 10 13 17 14 11 9 8 7 5 4 3 2 2 2 3 4 4 4 5 5 7 6 5 6 6 5 8 10 12 14 16 19 20 21 22 22 22 23 23 25 27 29
17 16 18 19 20 22 23 24 24 22 21 20 20 18 16 16 17 17 18 25 28 26 25 24 22 22 21 20 19 18 16 15 16 16 16 15 13 13 13 11 10 11 12 10 11 11 11 16 18 15 13 11 10 8 7 5 4 4 4 4 4 3 4 4 6 7 8 7 7 9 9 5 7 11 13 15 17 19 22 23 23 24 24 24 25 27 28 30
13 12 11 11 12 14 16 19 21 21 21 20 19 19 17 17 19 18 20 26 27 24 23 20 19 20 20 20 20 18 14 14 17 16 17 16 14 15 13 11 11 12 13 10 8 9 14 17 15 14 14 13 12 10 9 7 7 6 6 6 4 4 5 4 6 8 8 9 10 12 14 12 8 10 13 14 17 20 22 24 25 25 26 26 26 27 29 30
10 9 7 6 7 9 11 14 16 17 18 18 19 19 18 19 20 19 21 24 24 22 20 18 17 17 16 16 16 14 10 11 14 13 14 12 11 12 11 10 11 12 13 14 13 13 16 16 14 14 15 14 13 12 10 9 8 6 6 6 5 5 4 5 7 8 9 11 11 14 18 14 10 9 12 14 16 20 22 24 25 26 27 27 27 28 30 32
8 7 5 4 5 8 11 12 13 13 14 15 16 17 17 17 17 16 17 19 19 17 15 15 14 14 14 13 13 12 10 10 11 12 11 9 7 7 7 8 8 10 12 13 13 13 14 14 13 14 13 12 12 11 12 11 8 7 8 7 6 6 6 6 7 8 10 9 10 14 12 8 10 11 10 13 16 19 22 24 26 27 27 28 28 29 31 33
7 6 6 6 6 9 11 11 12 12 12 13 14 14 12 10 9 10 12 14 15 14 12 10 9 10 10 9 10 9 8 10 10 11 11 9 8 7 7 7 7 9 9 8 9 11 11 11 10 11 10 10 10 11 12 11 9 11 11 9 8 8 7 7 8 9 9 9 12 13 7 10 18 12 9 13 16 18 23 25 28 28 28 29 29 30 33 34
9 9 9 9 9 9 10 10 11 11 10 10 9 7 4 5 5 5 4 6 9 12 11 10 8 8 6 5 5 4 4 7 7 9 9 8 8 8 8 8 8 8 7 6 6 7 8 9 8 9 9 9 10 11 13 12 11 13 13 10 9 9 8 8 10 10 12 14 17 15 10 14 19 13 9 14 14 18 24 26 29 30 29 30 30 31 34 36
9 9 10 9 9 9 9 9 10 9 8 7 4 2 1 4 4 4 2 2 5 7 9 9 9 9 7 5 5 4 4 4 5 6 7 6 7 8 7 7 7 8 8 7 6 6 7 7 7 7 8 9 10 11 12 13 13 13 14 14 12 11 10 10 11 12 14 16 15 15 10 9 17 18 11 13 15 19 24 27 29 31 30 31 31 32 35 37
10 10 10 9 9 8 8 8 8 7 6 5 4 3 2 3 4 3 3 3 4 5 6 7 7 8 9 7 6 6 5 5 5 6 7 6 6 6 5 6 6 6 7 7 6 6 5 6 6 7 8 9 10 11 12 12 13 14 14 16 17 14 12 12 13 15 15 14 11 12 8 5 16 21 10 10 18 20 24 27 28 31 32 32 32 33 35 38
12 12 11 10 9 9 8 7 7 7 7 5 4 2 2 3 4 3 2 3 4 5 5 6 6 7 8 7 7 6 6 6 6 7 7 7 7 7 5 5 6 5 6 7 5 5 6 6 6 7 8 9 10 11 12 12 12 14 14 16 18 15 12 12 14 15 11 8 6 6 8 5 10 16 13 13 17 20 25 27 28 31 32 32 33 34 35 38
14 14 13 12 11 10 9 7 7 7 7 6 5 4 3 3 4 3 2 4 4 5 5 6 5 6 6 6 6 6 5 6 6 7 6 6 7 8 7 6 6 5 6 8 7 7 7 6 7 9 8 9 10 10 12 12 12 13 14 16 16 13 10 9 9 8 3 4 5 7 10 8 10 15 17 14 14 19 24 27 29 31 32 33 34 34 36 38
14 14 14 13 12 12 11 9 8 7 6 6 5 5 4 3 5 4 5 4 2 3 3 4 4 4 4 4 5 5 5 5 6 6 6 7 7 7 7 7 8 6 6 8 8 8 8 7 7 9 9 9 10 11 12 12 12 13 14 16 13 8 6 4 4 3 3 7 10 12 13 13 18 20 20 15 14 19 23 26 28 30 33 35 35 35 36 38
14 14 14 14 13 13 12 11 10 8 7 6 5 4 4 3 3 4 6 3 1 3 2 2 2 3 3 4 4 4 4 4 4 5 5 7 6 7 7 8 10 9 8 9 9 10 8 6 7 8 10 10 11 13 13 12 13 14 13 15 10 3 3 3 3 3 5 10 17 19 16 14 19 21 22 17 15 19 23 25 26 29 33 35 36 36 36 37
15 15 15 15 14 14 12 11 11 10 8 7 5 4 4 4 4 5 6 5 4 4 3 2 2 3 3 3 4 4 4 4 5 5 5 6 6 7 8 9 10 10 11 10 9 11 9 5 6 8 9 10 12 14 13 14 15 13 11 12 8 3 1 3 4 3 6 13 22 22 12 9 16 22 21 15 15 19 23 24 25 28 32 35 37 36 36 37
14 15 15 15 15 14 13 11 10 10 9 7 6 4 4 5 6 6 7 6 5 4 2 2 2 2 3 4 4 5 4 4 6 6 6 6 6 8 9 10 11 12 13 11 10 11 9 8 10 10 10 11 14 15 15 14 12 9 10 10 9 8 6 6 7 10 10 11 14 14 12 18 26 24 16 13 18 20 21 24 27 29 32 34 36 36 36 37
13 14 15 15 15 15 14 12 11 9 8 8 6 5 5 6 6 6 5 4 4 2 1 1 2 3 3 4 5 6 5 5 7 7 7 7 7 8 9 10 12 13 14 13 11 10 10 11 12 10 9 11 15 17 17 14 9 9 11 10 10 10 8 7 9 11 8 5 7 10 18 31 30 18 13 15 20 20 20 24 28 29 32 34 35 36 35 36
12 13 14 13 13 14 13 12 11 9 8 7 6 6 6 7 6 5 5 4 2 1 0 2 3 4 4 5 6 6 6 6 7 7 7 8 8 9 10 10 12 14 15 14 13 12 13 14 12 9 8 12 16 19 18 14 10 11 12 11 10 9 6 5 5 5 3 2 7 10 17 31 27 14 16 19 20 22 23 24 28 30 32 33 34 34 34 35
11 11 11 11 11 12 12 12 11 10 9 7 6 6 6 6 6 5 4 3 2 1 1 2 4 4 5 6 6 7 8 7 8 8 8 8 9 10 10 11 13 15 15 15 14 15 15 14 11 8 10 13 17 19 18 14 11 11 12 11 10 7 5 5 3 3 3 2 7 8 12 25 27 18 18 20 22 27 28 28 30 31 32 34 33 33 33 34
9 9 8 9 10 9 9 10 10 10 9 7 6 5 6 5 5 4 4 3 3 2 3 3 4 5 5 6 7 8 9 9 10 10 9 9 11 11 10 12 15 15 16 17 15 16 16 12 9 11 15 17 18 18 17 15 14 12 12 12 11 8 8 8 5 5 3 2 6 7 7 19 26 20 18 21 25 30 32 32 32 31 33 34 32 34 34 33
8 7 6 8 8 8 8 8 9 9 8 7 6 5 5 5 5 4 4 4 4 4 4 5 5 6 6 8 9 10 11 11 11 10 10 11 12 11 10 13 16 16 17 17 16 17 16 11 12 17 19 17 19 20 18 17 15 12 13 12 11 10 9 10 11 12 8 4 2 1 6 23 26 18 19 24 27 32 34 34 33 32 35 35 33 34 34 32
7 7 6 7 7 7 8 7 7 8 7 6 6 6 6 5 5 5 4 5 5 5 6 6 7 8 8 9 10 11 12 12 12 11 10 12 13 12 12 15 16 17 18 19 18 18 16 15 18 21 20 20 22 21 17 16 12 11 13 12 12 13 12 9 7 12 12 9 7 1 8 27 28 20 24 30 30 33 34 31 32 34 36 37 35 34 34 33
9 8 7 7 7 7 7 6 6 7 6 6 6 6 5 5 5 5 5 6 6 7 7 7 8 9 10 11 11 12 13 14 13 11 11 14 14 14 16 17 17 18 20 19 19 20 18 18 20 21 21 23 22 18 14 12 10 11 14 16 16 16 15 10 6 10 10 12 14 6 8 26 30 25 28 33 33 33 30 28 32 34 37 38 36 35 34 33
11 11 10 9 9 8 7 7 7 7 6 6 6 6 5 5 5 6 6 7 7 8 8 9 10 10 11 12 12 13 14 14 12 11 13 15 15 17 18 17 18 20 21 20 21 21 19 16 19 24 27 25 21 15 11 9 10 14 18 21 20 19 19 16 15 18 14 15 17 6 7 25 32 30 31 34 34 32 27 27 32 35 38 39 37 36 35 33
12 12 12 11 12 11 10 9 9 9 8 7 6 6 6 6 6 6 7 8 8 9 9 10 11 11 12 13 13 14 14 13 12 14 15 16 18 19 18 18 20 21 21 22 22 20 17 15 19 23 22 20 17 12 11 14 17 20 23 24 24 23 22 19 20 20 16 20 19 9 11 30 35 33 34 35 34 32 28 28 32 35 38 39 37 36 35 34
10 10 11 11 13 13 12 12 13 11 10 9 7 7 6 6 6 7 8 9 9 9 10 11 11 12 13 13 14 15 15 14 14 15 17 19 19 19 18 20 22 22 23 23 21 20 19 18 20 18 10 8 12 14 18 24 25 26 27 26 26 25 23 21 20 17 15 19 19 16 23 39 41 35 34 34 35 34 32 32 34 37 39 40 39 37 36 35
7 8 9 9 10 11 11 12 13 12 11 10 8 7 7 7 7 8 9 9 10 10 11 12 12 13 14 15 15 16 16 16 16 17 19 20 20 20 21 23 24 25 25 23 22 22 23 24 24 22 19 19 22 24 27 29 30 30 30 29 29 29 27 24 20 22 24 23 25 31 39 44 43 39 36 35 37 38 37 36 37 39 40 41 40 38 37 35
5 6 7 7 7 8 9 10 10 9 10 10 8 8 8 9 9 10 11 11 11 12 13 13 14 15 15 17 18 18 18 19 19 21 21 21 22 23 24 25 26 26 25 24 24 24 27 30 28 28 30 28 26 28 29 29 32 34 31 30 30 29 29 29 27 31 31 24 26 39 41 39 42 43 38 37 40 40 39 39 40 42 43 43 42 39 38 36
4 4 5 6 5 6 8 8 8 8 8 8 8 8 9 10 10 11 12 12 13 14 15 15 16 17 17 19 20 20 21 22 23 23 23 24 25 25 26 27 26 26 25 25 26 27 29 32 31 31 33 32 29 28 27 29 32 33 30 28 31 32 33 35 35 35 34 28 30 38 39 39 44 41 37 39 40 38 39 40 43 44 44 44 43 41 38 36
5 4 4 5 5 6 8 9 9 9 9 9 9 9 10 11 11 12 13 14 15 15 16 17 17 18 19 19 20 21 22 24 25 26 26 27 27 27 28 28 27 27 27 28 29 29 28 31 32 32 35 37 32 25 24 27 29 30 31 33 34 34 33 34 33 30 30 32 33 35 36 40 40 38 40 43 39 37 40 43 45 45 45 45 44 42 39 37
5 5 5 6 7 7 8 10 11 11 11 11 11 12 13 14 15 15 16 17 17 17 18 19 19 20 20 21 22 22 24 25 26 27 28 29 28 29 30 30 30 31 31 31 31 29 27 30 32 32 36 38 32 25 24 24 27 35 37 31 26 27 29 31 30 26 26 28 30 31 35 39 38 39 42 40 37 39 44 47 48 47 45 45 45 42 40 38
7 8 8 8 9 9 10 11 12 12 13 13 14 15 16 17 18 18 19 19 19 19 20 21 22 22 22 23 24 24 25 25 26 28 29 29 30 30 30 31 32 32 32 32 32 31 29 30 32 30 31 36 34 29 27 28 35 38 27 17 22 31 32 29 25 22 23 25 26 29 35 39 39 38 37 38 40 44 49 50 49 47 46 46 45 42 40 39
9 9 9 10 10 10 11 12 12 13 14 15 16 17 17 18 19 20 20 20 20 21 22 23 23 24 24 24 24 25 25 26 27 28 28 29 30 30 30 31 31 30 31 31 30 31 29 29 29 24 25 33 34 30 33 36 33 24 15 20 34 35 25 22 20 20 22 25 26 31 36 38 37 36 38 43 46 49 52 51 49 48 47 46 43 41 39 39
Wind_Direction
129 131 133 135 137 138 138 138 138 137 134 122 102 93 96 97 96 95 94 90 89 89 91 92 90 91 101 128 152 158 156 150 147 146 150 154 156 156 148 132 123 128 139 148 163 189 203 222 244 277 303 328 333 337 345 330 179 167 138 144 155 141 137 136 135 134 133 144 156 156 159 148 143 156 154 128 130 154 117 85 298 307 315 327 341 347 351 355
131 131 132 133 134 133 134 134 132 130 126 121 113 105 102 99 98 100 99 95 93 91 91 88 83 81 88 104 126 146 148 145 145 142 146 152 151 146 136 120 117 129 141 149 160 183 200 213 239 271 253 220 204 141 17 272 164 157 146 155 158 145 142 142 137 135 134 141 158 160 161 150 144 153 147 129 150 192 353 333 308 308 313 322 331 338 346 351
127 128 128 129 130 131 130 127 125 123 122 123 118 111 106 104 105 106 99 94 93 93 95 93 90 84 82 97 115 137 146 146 145 139 140 144 137 127 114 106 113 137 154 160 165 179 202 203 203 203 191 173 170 179 172 171 149 139 141 150 150 146 148 147 140 136 133 135 149 155 156 153 144 141 135 142 186 350 348 325 313 312 312 316 322 330 340 349
122 124 126 127 128 128 125 122 118 113 116 123 122 115 109 108 109 106 91 78 72 82 91 89 91 92 89 96 111 131 143 144 139 133 133 131 122 114 105 111 135 163 175 181 181 188 197 183 175 177 169 161 172 199 178 160 145 130 133 136 135 142 146 141 134 132 130 135 146 146 149 152 134 122 133 162 328 335 330 315 309 308 307 309 315 325 337 349
119 121 124 125 126 124 121 117 109 104 110 122 125 119 113 114 116 110 101 91 91 104 93 76 79 93 98 101 112 126 135 137 131 126 125 121 114 113 119 143 170 186 193 190 182 178 175 161 158 167 165 159 180 197 163 142 134 129 131 127 123 129 130 129 131 130 129 136 138 136 137 131 109 91 272 288 320 313 305 301 301 303 304 307 314 323 334 348
117 119 120 121 121 118 115 111 106 102 104 114 122 122 121 123 124 123 122 120 123 118 100 87 92 106 111 111 115 121 129 131 124 119 117 115 117 127 140 157 170 179 180 176 170 164 160 152 152 164 160 156 167 157 139 127 128 133 127 123 124 121 120 131 134 126 125 126 109 100 99 93 155 271 276 283 298 295 293 294 299 306 308 311 317 324 333 347
115 115 115 115 114 112 111 109 108 107 109 114 117 119 123 125 129 135 139 142 136 120 106 102 109 114 120 121 112 108 119 123 117 113 113 117 128 137 146 155 161 163 158 160 162 153 149 147 157 169 156 149 142 127 124 119 123 138 124 126 128 120 125 135 122 114 110 97 55 43 11 316 274 270 271 286 293 288 292 298 304 311 313 314 318 324 332 346
109 110 110 109 108 108 109 110 112 114 115 114 112 113 114 113 117 119 133 147 139 124 111 107 111 113 116 114 104 105 117 117 113 113 116 123 134 143 152 158 162 163 157 154 153 148 144 147 168 170 148 142 142 131 123 112 118 137 132 125 118 109 116 114 101 96 80 65 35 24 347 317 298 288 280 286 295 295 299 303 307 314 315 314 318 325 332 344
106 106 106 105 106 107 108 110 111 112 110 106 103 98 96 97 94 92 100 118 127 126 117 110 111 114 113 105 101 114 120 116 117 118 120 129 139 148 154 151 158 171 161 147 144 151 151 153 168 161 142 139 144 140 127 119 127 137 125 114 103 97 102 96 91 82 57 54 36 25 3 345 323 310 301 293 301 307 309 310 311 318 320 318 321 327 332 342
103 103 103 103 103 104 105 106 106 106 105 101 95 91 90 88 84 83 88 102 114 115 112 109 110 113 108 99 102 119 117 115 119 118 123 130 136 145 145 140 141 149 141 134 145 165 165 160 161 147 137 144 143 131 124 126 132 130 118 107 100 95 97 98 99 95 76 58 37 24 12 5 350 338 335 325 327 333 333 329 325 327 329 325 325 329 332 339
100 100 101 101 101 101 101 101 101 103 102 99 96 91 86 82 81 81 83 93 105 107 107 105 105 107 103 98 110 116 110 112 116 115 119 118 118 128 128 129 131 134 119 102 139 160 150 140 133 126 126 140 135 123 123 125 124 121 115 106 105 101 98 99 94 90 77 55 41 30 23 20 9 2 1 358 358 355 350 344 337 336 337 332 328 330 332 336
99 99 99 99 99 98 96 94 93 95 97 100 97 90 83 79 79 77 76 80 87 93 96 97 100 102 103 109 116 112 107 111 112 109 111 111 112 112 110 112 115 123 111 99 123 132 122 115 111 115 122 128 124 120 122 120 120 124 123 116 115 109 103 97 83 75 62 47 36 24 26 29 19 14 16 13 7 359 353 347 341 340 341 338 332 331 333 335
97 98 98 99 99 97 93 90 91 95 97 97 95 91 85 80 79 78 76 73 74 78 81 84 87 90 105 117 111 107 107 110 106 105 111 110 106 106 106 104 105 111 109 111 120 112 108 107 107 112 105 100 110 119 120 115 120 133 133 136 147 135 117 98 62 41 34 25 19 6 12 22 17 16 20 17 11 2 354 348 344 342 342 341 336 333 335 336
96 97 98 99 100 96 91 89 92 97 98 97 95 93 88 84 83 82 81 80 78 77 77 80 80 89 117 114 103 104 109 106 100 105 112 104 99 107 106 98 99 103 103 111 112 104 100 91 88 102 95 89 99 109 110 114 122 128 127 139 163 162 96 68 18 4 357 350 358 349 352 13 18 15 16 12 8 2 356 350 346 345 343 342 337 335 338 338
98 98 98 97 96 94 93 93 94 95 96 96 94 93 90 87 85 84 85 86 86 85 85 88 90 106 123 106 100 105 103 98 99 106 106 100 98 104 101 96 97 96 98 112 112 104 94 80 68 83 96 101 102 96 104 113 119 120 116 128 139 129 84 51 4 355 347 345 355 344 342 7 20 15 11 6 0 357 357 353 346 345 344 342 338 336 338 338
98 97 96 95 94 94 96 98 97 95 92 92 92 91 89 87 85 85 86 87 90 89 88 90 93 106 110 98 96 97 93 95 104 102 97 95 96 94 93 96 98 98 108 119 105 93 87 84 80 92 100 109 105 100 109 111 114 115 112 116 108 96 88 60 33 21 4 360 1 348 345 3 10 4 359 357 356 355 355 354 348 346 345 343 340 338 339 339
95 94 93 91 91 93 97 100 98 94 90 90 90 89 87 86 84 84 85 86 87 88 88 90 94 99 95 89 88 90 93 100 99 94 92 94 96 94 92 94 96 99 107 105 94 89 87 92 104 111 111 112 110 112 112 110 116 116 113 114 100 82 72 56 35 26 10 3 1 352 355 16 12 358 350 348 351 353 352 352 350 347 346 345 343 341 340 340
94 94 92 90 88 88 90 92 92 90 87 86 85 86 87 85 85 85 86 87 87 89 90 92 99 97 89 88 92 92 93 92 87 87 90 92 95 96 95 95 93 93 95 93 90 88 89 98 105 107 109 110 112 109 102 110 114 111 113 108 84 59 46 37 28 20 6 356 354 349 357 22 17 4 358 351 349 351 352 351 350 349 349 347 346 345 342 341
90 90 90 89 87 85 84 84 85 85 84 83 81 80 79 81 85 86 85 88 91 91 91 92 97 95 93 95 95 91 88 85 83 85 86 87 90 89 89 91 92 92 90 88 88 88 92 104 102 96 97 101 102 92 92 103 102 101 101 83 49 14 10 23 23 9 357 349 343 336 342 5 13 8 5 359 353 352 352 351 351 352 352 351 350 348 345 343
86 87 86 85 83 81 79 78 78 78 79 79 77 75 76 81 85 88 94 96 91 89 90 91 91 90 92 93 91 90 90 88 87 85 84 85 85 84 84 84 86 89 88 88 89 90 94 93 85 80 82 87 84 79 81 81 83 88 49 341 327 338 338 358 7 358 346 337 325 318 322 348 4 7 5 1 358 356 353 352 352 352 353 353 352 350 348 345
81 83 83 81 79 76 75 73 72 73 74 75 76 79 83 87 86 92 102 97 87 84 85 85 84 87 91 90 89 88 87 88 88 86 83 81 81 82 80 77 80 85 85 85 84 87 90 77 68 64 65 68 68 67 62 58 58 41 15 333 322 326 315 324 337 339 331 321 308 299 303 341 0 360 1 358 358 357 355 354 352 352 354 355 354 352 349 345
74 75 77 76 73 72 71 70 70 71 73 75 81 85 87 89 87 90 96 90 84 80 79 80 82 85 88 88 87 83 82 86 85 83 80 76 74 74 71 70 76 80 79 80 84 88 77 62 58 55 54 54 55 53 49 46 41 33 14 345 335 325 313 310 317 322 320 314 308 293 288 304 347 355 358 355 356 357 356 355 353 353 355 355 355 352 349 345
69 68 69 69 68 66 67 69 70 72 77 82 86 88 88 88 87 85 85 84 80 76 74 76 78 79 80 81 81 81 80 81 81 78 75 71 67 69 71 73 76 78 78 78 79 77 67 59 54 51 49 45 41 39 37 31 29 26 4 343 338 332 322 305 311 318 313 314 310 297 292 285 299 342 352 350 352 356 355 354 354 354 355 356 355 353 347 344
66 70 67 63 60 60 66 70 73 76 82 89 92 92 89 84 82 79 77 77 75 74 72 71 73 74 75 77 79 81 77 74 75 72 70 69 64 69 76 75 73 75 74 71 65 64 66 59 48 45 43 37 33 31 28 22 21 18 360 348 343 333 323 307 311 314 309 310 304 305 307 291 273 308 336 346 349 351 351 351 353 354 354 356 356 352 347 345
65 76 81 77 63 63 72 78 83 86 89 97 99 98 92 83 78 73 72 73 69 68 69 68 70 72 75 78 80 81 75 69 71 71 72 71 68 71 72 68 64 61 61 63 60 60 64 58 48 45 41 37 33 30 28 22 15 7 354 353 351 335 322 315 314 311 307 303 305 317 319 298 287 286 304 336 344 344 346 347 348 351 353 355 355 351 347 345
74 86 92 94 84 78 83 89 95 98 100 106 107 104 94 75 64 59 65 71 64 60 65 67 68 70 75 84 82 77 71 70 73 75 74 72 72 69 61 57 51 49 50 52 55 58 61 59 52 47 43 40 33 31 30 21 16 9 353 343 339 333 326 315 308 309 304 295 305 314 299 290 306 297 283 320 337 340 342 343 344 347 350 353 353 350 347 345
81 84 86 88 88 87 91 96 101 106 110 115 117 113 71 15 18 21 40 67 52 48 57 61 62 66 76 85 72 58 71 74 67 68 71 67 66 63 56 49 45 47 43 38 46 50 50 49 42 32 27 26 22 23 21 13 14 9 357 343 325 319 324 319 309 302 297 296 299 297 282 282 300 312 303 305 323 336 338 341 341 342 347 350 350 348 345 345
77 78 79 82 86 92 97 101 104 110 117 127 137 146 3 13 25 12 19 68 35 37 51 57 63 68 69 70 64 60 69 68 54 57 59 51 51 52 44 34 35 41 38 37 38 34 33 32 25 14 10 8 7 11 8 4 5 359 355 353 337 314 301 304 307 304 303 306 300 291 286 271 290 311 315 297 314 333 337 340 339 340 345 347 347 345 343 343
74 77 79 82 86 94 102 106 107 109 116 125 124 118 63 27 18 20 69 85 55 57 56 56 65 66 63 64 67 64 56 55 48 45 42 35 33 30 20 13 18 23 24 24 21 20 16 13 9 359 360 359 358 359 352 352 355 348 348 349 345 328 298 288 293 299 302 302 295 289 288 275 296 310 317 308 319 331 336 341 340 340 343 344 345 343 340 340
73 75 78 81 85 88 98 109 112 108 108 113 118 109 20 8 352 348 66 86 76 82 77 74 76 69 65 61 59 57 55 55 47 43 43 36 32 23 7 356 355 359 8 4 350 347 349 354 354 345 347 350 348 347 343 343 341 339 345 343 340 333 311 295 290 296 300 290 278 275 282 289 299 310 322 322 326 332 334 341 343 341 342 342 342 341 338 338
70 70 72 75 79 80 86 99 108 107 100 97 99 86 53 31 5 359 107 112 100 99 87 82 80 68 60 54 52 51 49 46 40 40 33 28 31 24 14 6 358 348 350 352 340 326 324 326 338 339 334 332 332 332 334 336 333 335 342 339 336 332 321 307 297 306 298 267 289 280 286 287 267 294 323 325 323 331 334 340 343 341 340 339 339 338 336 336
65 65 65 67 70 71 74 81 90 98 97 91 89 73 54 33 27 66 125 129 115 121 92 75 68 52 41 36 35 31 32 34 29 24 21 27 24 8 10 15 13 9 348 345 344 333 320 307 320 335 330 322 320 321 320 322 330 332 332 339 344 344 342 321 290 314 257 268 302 296 295 289 270 291 324 323 316 328 332 337 341 340 338 336 336 336 335 335
63 64 64 64 63 64 67 70 73 81 85 84 82 63 44 44 58 100 131 132 136 145 117 76 53 27 14 8 6 3 8 12 8 6 12 21 15 2 8 13 16 19 358 345 345 346 340 313 308 328 334 329 320 320 315 310 322 324 327 347 358 18 21 325 273 301 278 285 301 297 296 288 279 305 327 320 318 329 330 334 336 337 336 332 332 335 334 334
63 64 63 60 58 59 60 61 64 67 72 73 74 72 67 81 99 114 120 114 120 130 118 82 56 29 12 359 355 352 347 349 349 348 349 358 5 3 5 9 11 9 359 353 347 347 347 325 312 317 325 334 332 328 320 310 313 313 319 344 355 2 353 278 261 277 287 298 300 294 285 265 288 318 328 324 333 334 329 329 332 334 332 328 329 333 333 333
60 60 58 56 54 54 52 54 57 58 63 66 65 77 94 99 108 116 114 114 122 122 107 85 47 13 6 356 352 348 345 348 347 348 349 345 347 353 2 7 3 1 0 357 349 343 339 332 327 313 305 324 335 334 327 316 309 302 310 328 337 330 298 261 267 281 290 306 302 285 271 281 301 320 332 339 342 338 330 327 329 332 329 325 328 331 331 331
56 55 54 52 50 49 47 47 50 51 56 62 65 79 99 106 115 123 118 119 129 125 110 37 351 346 353 351 351 350 345 345 347 349 349 344 341 345 354 359 358 359 358 354 352 344 333 332 331 316 301 312 326 332 330 320 303 293 303 313 321 321 300 268 275 286 295 311 288 270 285 301 312 329 346 347 343 338 334 329 329 328 325 324 326 329 329 330
51 51 50 48 45 44 43 41 43 46 49 53 67 81 92 102 111 120 119 119 129 116 12 335 344 350 350 348 351 356 354 353 353 350 344 348 350 344 347 355 356 355 354 352 349 339 330 329 330 326 312 312 322 328 327 321 306 291 292 303 315 319 303 278 282 305 338 307 275 263 282 300 308 325 344 345 342 339 337 333 329 324 322 323 325 326 327 330
46 47 46 42 39 37 36 37 36 38 44 46 58 75 84 92 97 103 103 92 90 67 15 346 350 353 352 352 350 351 354 356 357 356 351 352 351 344 346 352 352 352 352 349 343 338 334 327 326 332 324 321 323 324 323 321 312 296 290 298 307 305 283 276 279 309 326 295 289 281 278 295 302 314 335 341 339 339 339 333 327 323 322 324 325 326 327 330
38 40 40 34 33 28 26 31 28 26 37 38 41 64 75 80 81 80 70 53 43 25 11 0 354 350 348 351 349 347 349 348 348 351 352 353 349 343 343 346 349 349 348 346 341 337 334 323 313 320 323 322 321 320 317 314 311 301 294 294 297 293 278 271 248 245 262 236 291 307 294 302 313 322 329 335 336 335 337 332 326 324 324 325 326 326 327 330
28 28 30 25 22 16 14 20 18 17 25 31 36 55 65 67 61 52 43 32 22 13 10 3 357 352 347 347 346 345 345 343 341 341 343 348 348 344 342 342 343 343 342 343 338 334 330 316 302 312 320 320 318 319 313 308 306 296 294 293 290 290 286 281 267 254 247 219 254 3 287 300 322 341 330 332 334 332 335 331 323 322 323 325 326 325 326 329
19 14 19 15 8 5 5 2 3 8 13 26 38 46 52 52 40 31 24 13 7 0 355 350 347 345 342 342 341 339 340 339 336 333 335 340 342 341 338 337 338 339 339 338 334 332 327 312 304 310 320 320 317 317 307 301 300 294 298 296 290 293 288 281 275 259 242 226 240 195 273 298 326 348 331 333 336 334 337 329 319 319 320 323 326 325 325 327
23 19 17 11 4 360 358 350 352 3 10 26 40 42 44 40 27 18 7 356 353 349 344 341 339 338 336 336 336 335 335 334 332 331 331 334 335 333 333 334 335 335 335 334 332 330 324 312 304 308 319 320 317 315 302 291 292 292 299 297 294 295 284 268 259 267 252 233 248 246 260 296 326 342 328 333 338 335 335 324 316 317 318 321 324 324 323 325
30 30 29 26 20 12 5 359 356 1 10 24 33 34 34 27 17 8 358 351 347 343 339 335 334 334 332 332 332 331 332 331 328 327 328 330 330 329 328 329 330 331 332 332 329 327 323 314 308 311 318 318 314 315 305 293 293 295 299 299 295 294 290 283 270 272 273 249 248 228 245 290 325 339 325 331 338 333 330 322 316 317 319 322 323 322 322 323
32 35 39 39 38 34 29 26 21 15 14 17 18 18 16 10 5 358 350 346 340 336 334 331 329 328 327 327 327 328 331 329 324 323 324 327 326 324 323 325 327 327 327 327 325 322 318 314 311 315 323 324 321 320 310 302 298 296 298 297 295 294 291 287 277 271 271 263 253 204 239 289 322 332 319 329 337 327 322 320 319 322 324 326 325 322 321 322
32 34 39 40 42 41 39 39 37 30 24 19 11 6 2 355 350 343 338 335 331 329 328 326 324 323 323 323 323 324 324 322 320 320 322 323 322 320 320 322 323 323 323 324 322 318 312 310 310 308 306 305 305 305 306 306 301 296 299 298 297 295 287 284 278 259 255 264 253 224 254 291 316 321 315 329 333 322 317 318 323 328 328 328 327 323 320 321
26 30 34 36 38 36 35 39 38 32 28 20 10 4 357 346 338 332 330 327 323 323 324 321 320 320 319 319 319 319 319 318 317 318 319 319 319 318 317 318 320 320 321 320 319 317 312 309 309 302 288 286 296 302 306 305 300 298 301 301 298 296 290 282 266 253 261 267 264 267 275 290 307 313 316 327 329 321 317 318 325 330 329 328 328 324 320 320
16 26 29 29 32 28 30 37 34 29 27 19 10 3 354 344 337 332 330 327 322 320 320 318 318 317 317 317 317 317 317 315 313 313 314 314 315 315 314 315 317 316 317 317 316 316 310 307 308 304 299 299 303 307 306 302 298 298 301 302 299 297 292 283 271 273 278 268 269 286 289 289 301 311 317 325 327 322 317 319 324 328 328 327 326 325 321 318
7 28 31 26 28 25 28 30 21 17 18 16 11 1 350 345 337 332 330 326 324 322 320 320 317 315 317 316 316 318 316 312 311 312 312 312 313 314 313 314 315 314 315 315 314 313 309 306 308 307 305 305 306 308 305 299 297 298 299 303 302 298 296 292 291 290 283 267 274 293 296 294 302 312 319 324 326 320 317 321 324 325 327 325 323 324 321 318
3 23 29 26 26 22 20 15 8 5 3 4 4 353 346 344 336 332 329 325 323 322 320 320 316 314 316 315 316 318 315 312 313 313 312 312 313 314 314 314 315 314 315 314 312 311 307 304 307 308 307 307 309 311 309 304 302 301 304 307 305 302 303 302 303 300 285 278 287 297 297 298 306 318 323 322 321 315 316 320 321 322 325 323 323 323 320 317
356 11 15 16 15 10 7 4 2 1 358 357 358 352 347 344 339 337 333 328 327 326 323 321 319 318 318 317 316 316 313 313 315 314 313 313 314 315 315 314 315 314 313 312 309 308 305 302 306 308 307 308 313 317 318 314 310 308 311 314 313 314 314 309 305 301 290 289 296 298 296 300 312 324 324 320 319 316 315 316 318 320 323 323 322 322 319 317
2 6 6 7 4 359 359 359 356 355 353 353 354 351 347 345 342 340 338 335 334 332 327 324 322 321 320 319 318 316 314 315 315 314 314 314 314 316 314 313 314 313 311 310 307 306 305 302 305 309 307 307 312 318 320 318 313 311 315 330 328 321 316 309 305 302 300 301 302 297 297 306 319 326 323 319 319 315 313 314 316 320 324 324 322 321 319 317
6 3 3 2 358 355 357 357 353 352 353 353 352 350 347 345 343 341 340 338 336 334 331 328 326 325 324 323 321 319 318 318 317 316 315 314 314 315 314 313 313 312 310 309 306 306 306 304 307 308 304 306 313 319 321 320 317 315 327 332 323 319 314 307 303 309 313 310 302 300 306 316 324 327 324 319 315 312 312 314 316 321 325 323 320 319 318 316
Height
3135 3135 3136 3137 3137 3138 3138 3139 3139 3139 3139 3139 3139 3139 3139 3138 3138 3138 3138 3138 3138 3138 3138 3138 3138 3138 3138 3138 3138 3139 3140 3140 3141 3142 3143 3144 3145 3145 3146 3146 3147 3147 3147 3147 3148 3148 3148 3149 3149 3149 3149 3149 3149 3149 3149 3149 3148 3148 3148 3149 3149 3150 3151 3152 3152 3153 3153 3154 3154 3154 3154 3154 3154 3155 3155 3155 3154 3154 3153 3152 3152 3151 3150 3149 3147 3146 3144 3142
3136 3136 3137 3137 3138 3138 3139 3139 3139 3140 3140 3140 3139 3139 3139 3139 3139 3139 3139 3139 3139 3139 3139 3139 3139 3139 3139 3139 3139 3140 3140 3141 3142 3143 3144 3145 3145 3146 3147 3147 3148 3148 3148 3148 3148 3148 3148 3149 3149 3149 3150 3150 3150 3150 3149 3149 3149 3149 3149 3149 3150 3150 3151 3152 3152 3153 3153 3154 3155 3154 3155 3154 3154 3154 3155 3154 3154 3154 3153 3152 3151 3151 3150 3148 3146 3145 3143 3141
3137 3137 3138 3138 3139 3139 3139 3140 3140 3140 3140 3140 3140 3140 3140 3140 3140 3140 3140 3140 3140 3140 3139 3140 3140 3140 3140 3140 3140 3140 3141 3142 3143 3143 3144 3146 3146 3147 3148 3148 3149 3149 3149 3149 3149 3149 3149 3149 3150 3150 3150 3150 3150 3150 3150 3150 3150 3150 3150 3150 3150 3151 3152 3152 3152 3153 3153 3154 3155 3155 3155 3154 3154 3154 3154 3154 3153 3153 3152 3151 3151 3150 3149 3147 3146 3144 3142 3139
3138 3138 3138 3139 3139 3140 3140 3140 3141 3141 3141 3141 3141 3141 3141 3141 3141 3141 3141 3140 3140 3140 3140 3140 3140 3141 3141 3141 3141 3141 3142 3143 3144 3145 3146 3146 3147 3148 3148 3149 3149 3149 3149 3149 3149 3149 3149 3150 3150 3150 3150 3150 3150 3151 3150 3151 3151 3151 3151 3151 3151 3152 3152 3153 3153 3153 3153 3154 3154 3155 3155 3154 3153 3153 3153 3153 3153 3152 3152 3151 3150 3149 3148 3146 3145 3143 3141 3138
3139 3139 3139 3140 3140 3141 3141 3141 3141 3141 3142 3142 3142 3142 3142 3142 3142 3142 3142 3141 3141 3141 3141 3141 3141 3141 3141 3142 3142 3143 3143 3144 3145 3146 3147 3147 3148 3148 3149 3149 3149 3149 3149 3150 3150 3150 3150 3150 3150 3150 3150 3151 3151 3151 3151 3151 3151 3151 3152 3152 3152 3153 3153 3153 3154 3153 3154 3154 3154 3154 3154 3154 3153 3153 3153 3152 3152 3152 3151 3150 3149 3148 3147 3145 3144 3142 3139 3135
3139 3140 3140 3141 3141 3142 3142 3142 3143 3143 3143 3143 3143 3143 3143 3143 3143 3143 3143 3143 3143 3143 3143 3142 3142 3142 3143 3143 3143 3144 3144 3145 3146 3147 3147 3148 3148 3148 3149 3149 3149 3150 3150 3150 3150 3150 3150 3150 3150 3151 3151 3151 3151 3151 3151 3152 3152 3152 3152 3153 3153 3154 3154 3155 3154 3154 3154 3154 3154 3154 3154 3153 3153 3152 3152 3152 3152 3151 3150 3149 3148 3147 3146 3144 3142 3140 3137 3134
3141 3141 3142 3142 3143 3143 3143 3144 3144 3144 3144 3144 3144 3145 3144 3144 3144 3144 3144 3144 3144 3144 3144 3144 3144 3143 3144 3144 3144 3144 3145 3146 3147 3147 3148 3148 3149 3149 3149 3149 3150 3150 3150 3151 3151 3150 3150 3151 3151 3151 3151 3151 3151 3152 3152 3152 3152 3153 3153 3153 3154 3154 3155 3155 3155 3154 3154 3154 3154 3153 3153 3153 3152 3152 3152 3151 3151 3150 3149 3148 3147 3146 3144 3143 3141 3138 3136 3132
3143 3143 3143 3144 3144 3144 3145 3145 3145 3146 3146 3146 3146 3146 3145 3145 3145 3145 3144 3144 3144 3144 3144 3144 3144 3144 3144 3144 3144 3145 3146 3147 3147 3148 3148 3149 3149 3150 3150 3150 3151 3151 3151 3151 3151 3151 3151 3151 3152 3152 3152 3152 3152 3152 3152 3152 3153 3154 3154 3154 3154 3154 3155 3155 3155 3155 3155 3154 3154 3153 3153 3152 3152 3151 3151 3150 3150 3149 3148 3147 3145 3144 3143 3141 3139 3136 3134 3130
3144 3145 3145 3145 3146 3146 3146 3147 3147 3147 3147 3147 3147 3147 3146 3146 3146 3145 3145 3144 3144 3145 3145 3145 3145 3145 3145 3145 3145 3147 3148 3148 3148 3149 3149 3150 3151 3151 3151 3151 3152 3152 3152 3151 3152 3152 3152 3152 3152 3152 3152 3152 3152 3152 3153 3153 3154 3154 3154 3154 3155 3155 3155 3156 3155 3155 3155 3154 3154 3153 3152 3152 3151 3151 3150 3149 3149 3148 3147 3145 3144 3142 3141 3139 3136 3134 3131 3129
3146 3146 3147 3147 3147 3148 3148 3148 3148 3148 3148 3148 3148 3148 3147 3147 3147 3146 3145 3145 3145 3145 3145 3145 3146 3146 3146 3146 3147 3148 3149 3149 3149 3150 3151 3152 3152 3152 3152 3152 3153 3153 3153 3152 3152 3152 3152 3152 3153 3153 3153 3153 3153 3153 3153 3154 3154 3155 3155 3155 3155 3156 3156 3156 3156 3156 3155 3155 3154 3153 3152 3151 3151 3150 3149 3149 3148 3146 3145 3143 3142 3140 3138 3136 3134 3132 3129 3127
3148 3148 3149 3149 3149 3149 3149 3149 3149 3149 3149 3149 3149 3149 3149 3148 3148 3147 3146 3146 3146 3146 3146 3146 3147 3147 3147 3148 3149 3149 3150 3151 3151 3152 3153 3153 3153 3154 3154 3153 3153 3153 3153 3153 3153 3153 3153 3153 3153 3153 3153 3154 3154 3154 3154 3154 3155 3155 3155 3155 3156 3156 3157 3157 3156 3156 3155 3155 3154 3153 3152 3151 3150 3149 3148 3147 3146 3144 3143 3142 3140 3138 3136 3134 3132 3130 3128 3126
3150 3150 3151 3151 3151 3151 3151 3151 3151 3151 3151 3151 3151 3151 3150 3150 3149 3148 3148 3147 3147 3147 3147 3147 3148 3148 3149 3150 3150 3151 3152 3153 3153 3154 3154 3154 3154 3154 3154 3154 3154 3154 3153 3153 3154 3154 3154 3153 3154 3154 3154 3154 3154 3154 3154 3155 3155 3155 3156 3156 3157 3157 3157 3157 3156 3156 3155 3154 3153 3152 3151 3150 3149 3148 3147 3145 3144 3143 3141 3140 3138 3136 3134 3132 3130 3128 3126 3125
3152 3152 3152 3153 3153 3153 3153 3153 3153 3153 3153 3153 3153 3153 3152 3151 3151 3150 3149 3149 3148 3148 3148 3149 3150 3150 3151 3152 3152 3153 3153 3154 3154 3155 3155 3155 3155 3155 3155 3155 3155 3155 3154 3154 3155 3154 3154 3154 3154 3155 3155 3155 3155 3155 3155 3155 3156 3156 3156 3157 3157 3157 3157 3156 3156 3155 3154 3153 3153 3152 3151 3149 3148 3147 3145 3144 3143 3142 3140 3139 3137 3135 3132 3130 3128 3126 3125 3123
3154 3154 3155 3155 3155 3155 3155 3155 3155 3154 3155 3154 3154 3154 3154 3154 3153 3152 3152 3151 3151 3151 3151 3151 3151 3152 3153 3153 3153 3155 3155 3155 3156 3156 3156 3156 3156 3157 3156 3155 3156 3156 3155 3155 3156 3155 3155 3155 3155 3156 3155 3155 3156 3155 3155 3155 3156 3157 3157 3157 3157 3157 3156 3155 3155 3154 3154 3153 3152 3151 3150 3149 3147 3146 3145 3143 3142 3141 3139 3137 3135 3133 3131 3128 3127 3125 3123 3122
3156 3156 3157 3157 3157 3157 3157 3157 3156 3156 3156 3156 3156 3156 3156 3155 3155 3155 3154 3154 3153 3153 3153 3153 3153 3154 3155 3155 3155 3157 3156 3156 3158 3158 3157 3157 3158 3158 3156 3156 3157 3156 3156 3157 3157 3156 3156 3155 3156 3157 3156 3156 3157 3156 3156 3156 3157 3157 3157 3157 3157 3156 3156 3155 3155 3154 3153 3152 3152 3151 3150 3148 3147 3145 3144 3143 3141 3139 3137 3135 3133 3131 3129 3127 3125 3123 3121 3120
3158 3158 3158 3158 3158 3158 3158 3158 3158 3158 3158 3158 3158 3158 3158 3157 3157 3157 3156 3156 3156 3155 3156 3156 3156 3157 3157 3156 3157 3158 3158 3159 3160 3159 3159 3158 3159 3159 3158 3158 3158 3158 3158 3158 3157 3157 3156 3156 3158 3158 3157 3157 3157 3157 3157 3157 3157 3157 3157 3157 3157 3156 3156 3155 3155 3154 3153 3152 3151 3151 3149 3147 3146 3145 3143 3142 3140 3138 3136 3134 3132 3130 3128 3126 3124 3122 3120 3118
3160 3160 3160 3160 3160 3160 3160 3160 3159 3159 3159 3159 3159 3159 3159 3159 3158 3158 3158 3158 3158 3157 3158 3158 3159 3159 3158 3157 3159 3160 3160 3161 3161 3160 3160 3160 3160 3160 3160 3160 3160 3159 3159 3159 3158 3157 3157 3158 3158 3158 3158 3158 3158 3158 3158 3158 3158 3157 3157 3157 3157 3156 3156 3155 3154 3153 3153 3152 3151 3150 3149 3147 3145 3144 3142 3140 3138 3136 3134 3133 3131 3129 3126 3124 3122 3120 3118 3117
3162 3162 3162 3162 3162 3162 3161 3161 3161 3161 3161 3161 3161 3160 3160 3160 3160 3160 3159 3159 3159 3159 3160 3161 3161 3160 3159 3160 3162 3163 3163 3163 3162 3162 3162 3162 3162 3162 3162 3161 3161 3161 3160 3160 3159 3158 3158 3159 3159 3159 3158 3158 3158 3158 3158 3158 3158 3157 3157 3157 3157 3156 3155 3155 3154 3153 3153 3152 3150 3149 3148 3146 3145 3143 3141 3139 3137 3135 3134 3132 3130 3127 3125 3123 3121 3119 3117 3115
3164 3164 3164 3164 3163 3163 3163 3163 3163 3163 3163 3163 3162 3162 3162 3162 3162 3162 3161 3162 3161 3161 3162 3163 3163 3161 3161 3163 3164 3164 3164 3164 3164 3164 3164 3164 3163 3163 3163 3162 3162 3162 3161 3161 3160 3160 3160 3160 3160 3159 3159 3159 3159 3158 3158 3158 3158 3157 3157 3157 3156 3156 3155 3155 3154 3153 3152 3151 3150 3148 3147 3145 3144 3142 3140 3138 3137 3135 3133 3131 3129 3126 3124 3122 3119 3117 3115 3113
3166 3166 3165 3165 3165 3165 3165 3164 3164 3164 3164 3164 3163 3163 3164 3165 3165 3164 3164 3164 3163 3163 3164 3166 3165 3163 3164 3165 3165 3165 3165 3165 3166 3166 3165 3165 3165 3165 3165 3164 3163 3163 3162 3162 3162 3161 3161 3161 3160 3159 3159 3159 3159 3159 3159 3158 3158 3158 3157 3157 3156 3155 3155 3154 3154 3153 3152 3151 3149 3148 3146 3144 3142 3141 3139 3138 3136 3134 3132 3130 3127 3125 3123 3120 3118 3116 3113 3111
3168 3168 3167 3167 3166 3166 3166 3166 3166 3166 3166 3165 3165 3166 3167 3168 3168 3167 3167 3166 3165 3166 3167 3167 3167 3166 3166 3167 3167 3167 3167 3167 3167 3167 3167 3167 3166 3166 3166 3165 3165 3164 3164 3164 3163 3162 3162 3161 3159 3160 3160 3160 3159 3159 3159 3159 3158 3157 3157 3156 3155 3155 3154 3154 3153 3153 3152 3150 3148 3147 3145 3143 3141 3140 3138 3137 3135 3133 3131 3129 3126 3124 3121 3119 3116 3114 3111 3109
3171 3170 3170 3169 3169 3168 3168 3168 3168 3168 3168 3168 3168 3169 3171 3171 3170 3171 3169 3167 3167 3168 3169 3169 3169 3169 3169 3169 3169 3169 3170 3169 3169 3169 3168 3168 3168 3167 3167 3167 3167 3166 3165 3165 3164 3164 3162 3160 3160 3161 3161 3160 3160 3159 3159 3159 3158 3157 3156 3156 3155 3154 3154 3153 3153 3152 3151 3149 3147 3146 3144 3142 3140 3139 3137 3135 3134 3132 3129 3127 3125 3122 3120 3117 3115 3112 3110 3108
3173 3172 3172 3172 3171 3171 3171 3171 3171 3171 3171 3171 3172 3172 3173 3173 3173 3173 3172 3169 3169 3170 3171 3172 3172 3171 3171 3171 3170 3171 3172 3172 3170 3170 3169 3169 3169 3168 3168 3169 3168 3167 3166 3166 3166 3164 3162 3162 3163 3162 3161 3161 3160 3159 3159 3158 3158 3157 3156 3156 3155 3154 3153 3153 3152 3151 3150 3148 3147 3145 3143 3140 3139 3137 3136 3134 3132 3130 3128 3126 3123 3121 3118 3116 3113 3111 3108 3106
3175 3174 3174 3174 3173 3173 3173 3173 3173 3174 3174 3174 3174 3175 3175 3175 3175 3175 3174 3172 3172 3173 3174 3175 3174 3173 3173 3173 3173 3173 3174 3173 3172 3171 3171 3171 3171 3171 3171 3171 3170 3169 3168 3167 3167 3165 3163 3164 3164 3162 3162 3161 3160 3160 3159 3158 3158 3157 3157 3156 3154 3153 3153 3152 3152 3151 3149 3148 3146 3144 3141 3137 3137 3136 3134 3133 3131 3129 3127 3124 3122 3119 3117 3114 3112 3109 3107 3104
3176 3176 3175 3175 3175 3175 3175 3175 3176 3176 3176 3176 3176 3177 3177 3177 3177 3177 3176 3175 3176 3176 3177 3177 3177 3176 3176 3175 3175 3175 3175 3175 3174 3173 3172 3172 3173 3172 3172 3172 3171 3170 3169 3168 3168 3166 3165 3165 3165 3164 3163 3162 3162 3160 3159 3158 3158 3157 3157 3155 3154 3153 3152 3152 3151 3150 3149 3148 3146 3145 3142 3137 3134 3134 3133 3131 3129 3127 3125 3123 3120 3118 3115 3113 3110 3107 3105 3102
3177 3176 3176 3176 3176 3176 3176 3177 3177 3177 3178 3178 3178 3178 3178 3178 3178 3178 3178 3177 3178 3179 3179 3179 3178 3178 3177 3177 3177 3177 3177 3176 3175 3174 3174 3174 3174 3173 3173 3172 3172 3171 3170 3170 3169 3168 3167 3167 3166 3165 3164 3163 3163 3161 3160 3159 3158 3157 3156 3155 3154 3153 3152 3151 3150 3150 3148 3147 3145 3145 3144 3138 3132 3131 3131 3129 3128 3126 3123 3121 3118 3116 3113 3111 3108 3105 3103 3100
3178 3178 3177 3177 3178 3178 3178 3178 3178 3179 3179 3179 3179 3179 3179 3179 3179 3179 3178 3178 3179 3181 3180 3180 3179 3179 3179 3178 3178 3178 3177 3177 3177 3176 3175 3175 3175 3174 3173 3173 3172 3172 3171 3171 3170 3169 3168 3167 3167 3166 3165 3164 3163 3161 3160 3159 3158 3157 3156 3155 3154 3152 3151 3150 3150 3149 3148 3146 3144 3143 3143 3138 3130 3128 3128 3127 3126 3124 3122 3119 3116 3114 3112 3109 3106 3103 3101 3098
3179 3179 3179 3179 3179 3179 3179 3179 3179 3180 3180 3180 3180 3180 3180 3180 3180 3180 3179 3180 3182 3182 3182 3181 3181 3180 3180 3179 3179 3179 3178 3178 3177 3177 3176 3176 3175 3174 3174 3174 3173 3172 3172 3171 3170 3170 3169 3168 3167 3166 3165 3164 3163 3161 3160 3159 3158 3157 3156 3154 3153 3152 3151 3150 3149 3148 3147 3145 3143 3141 3141 3139 3130 3126 3126 3124 3123 3122 3120 3118 3115 3112 3110 3107 3104 3102 3099 3096
3180 3180 3180 3180 3180 3180 3180 3180 3180 3181 3181 3181 3181 3181 3181 3181 3181 3180 3179 3181 3184 3183 3183 3183 3182 3181 3181 3180 3180 3179 3179 3179 3178 3177 3176 3176 3175 3175 3174 3174 3173 3173 3172 3172 3171 3170 3169 3168 3168 3166 3165 3164 3163 3161 3160 3159 3158 3157 3156 3154 3152 3151 3150 3149 3148 3147 3146 3144 3142 3140 3140 3138 3129 3122 3124 3123 3120 3119 3117 3116 3114 3110 3107 3105 3102 3100 3097 3094
3182 3182 3181 3181 3181 3181 3181 3181 3181 3181 3181 3181 3181 3182 3182 3181 3181 3181 3181 3183 3184 3184 3184 3183 3183 3183 3182 3181 3181 3180 3180 3179 3178 3177 3177 3176 3176 3175 3175 3174 3174 3173 3172 3172 3171 3170 3169 3168 3167 3166 3165 3164 3163 3162 3161 3160 3159 3157 3156 3154 3152 3151 3149 3148 3147 3146 3146 3143 3140 3139 3138 3139 3132 3122 3121 3121 3118 3117 3115 3113 3112 3108 3106 3103 3101 3098 3095 3092
3184 3183 3183 3182 3182 3182 3182 3182 3182 3182 3182 3182 3182 3182 3182 3182 3182 3181 3182 3184 3184 3184 3184 3184 3183 3183 3182 3182 3182 3181 3180 3180 3179 3178 3177 3177 3176 3175 3175 3174 3173 3173 3172 3172 3171 3170 3169 3168 3167 3166 3165 3164 3163 3162 3161 3160 3159 3157 3156 3154 3152 3150 3148 3147 3145 3145 3145 3141 3139 3138 3137 3139 3133 3121 3119 3120 3117 3115 3113 3111 3109 3106 3104 3101 3099 3097 3093 3090
3185 3185 3185 3184 3184 3183 3183 3183 3183 3183 3183 3183 3183 3183 3183 3182 3182 3182 3184 3185 3184 3184 3185 3184 3184 3183 3183 3183 3182 3181 3181 3180 3179 3179 3178 3177 3176 3176 3175 3175 3174 3173 3172 3171 3171 3170 3168 3168 3167 3166 3165 3164 3163 3162 3161 3160 3158 3157 3156 3155 3153 3151 3149 3148 3147 3146 3145 3141 3138 3137 3137 3135 3127 3119 3118 3118 3116 3114 3112 3109 3107 3104 3102 3099 3097 3095 3091 3088
3187 3187 3186 3186 3185 3185 3185 3184 3184 3184 3184 3183 3183 3184 3183 3183 3183 3184 3184 3184 3184 3185 3185 3184 3184 3184 3183 3183 3182 3182 3181 3181 3180 3179 3178 3178 3177 3176 3176 3175 3174 3173 3172 3171 3170 3169 3168 3167 3166 3166 3165 3164 3163 3162 3160 3159 3158 3157 3156 3155 3153 3153 3153 3152 3150 3147 3144 3140 3137 3137 3136 3130 3121 3117 3117 3115 3114 3113 3110 3108 3105 3102 3100 3097 3094 3092 3089 3086
3189 3189 3188 3188 3187 3187 3186 3186 3185 3185 3185 3184 3184 3184 3184 3183 3184 3185 3185 3184 3185 3185 3185 3185 3184 3184 3184 3183 3183 3182 3182 3181 3180 3179 3179 3178 3177 3177 3176 3175 3174 3173 3172 3171 3170 3169 3168 3166 3166 3165 3164 3163 3162 3161 3159 3158 3157 3156 3155 3155 3154 3154 3155 3153 3150 3147 3142 3139 3136 3135 3132 3125 3117 3115 3114 3113 3112 3111 3108 3106 3103 3101 3098 3095 3092 3089 3087 3083
3191 3190 3189 3189 3188 3188 3188 3187 3187 3186 3186 3185 3185 3185 3184 3184 3185 3185 3185 3185 3185 3186 3185 3185 3185 3185 3184 3184 3183 3183 3182 3181 3180 3180 3179 3178 3178 3177 3176 3175 3174 3173 3172 3171 3170 3169 3168 3166 3165 3164 3163 3162 3161 3160 3159 3157 3156 3155 3154 3154 3154 3153 3153 3152 3150 3147 3144 3141 3136 3131 3125 3118 3115 3114 3112 3111 3110 3108 3106 3103 3101 3099 3095 3092 3090 3087 3084 3081
3192 3191 3191 3190 3190 3189 3189 3188 3188 3187 3187 3186 3186 3186 3185 3185 3186 3186 3186 3186 3186 3186 3186 3186 3186 3185 3185 3184 3184 3183 3182 3181 3180 3180 3179 3178 3178 3177 3176 3175 3174 3173 3172 3171 3170 3169 3167 3165 3164 3163 3162 3161 3160 3159 3157 3156 3155 3154 3153 3153 3152 3152 3151 3150 3149 3146 3146 3143 3134 3127 3121 3114 3113 3112 3109 3110 3108 3106 3105 3102 3099 3097 3093 3090 3087 3085 3082 3079
3193 3192 3192 3191 3191 3191 3190 3190 3189 3189 3188 3188 3187 3187 3187 3187 3187 3187 3187 3187 3187 3187 3186 3186 3186 3186 3185 3185 3184 3183 3183 3182 3181 3180 3179 3178 3177 3177 3176 3175 3174 3173 3172 3171 3170 3168 3167 3164 3163 3162 3161 3160 3159 3157 3156 3155 3154 3153 3152 3152 3151 3151 3150 3150 3148 3146 3147 3144 3131 3124 3121 3114 3111 3111 3108 3107 3106 3104 3103 3100 3097 3094 3091 3088 3085 3083 3080 3076
3194 3193 3193 3193 3192 3192 3191 3191 3190 3190 3189 3189 3188 3188 3188 3188 3188 3188 3188 3188 3187 3187 3187 3187 3186 3186 3186 3185 3184 3184 3183 3182 3181 3180 3179 3178 3177 3176 3176 3175 3174 3173 3171 3170 3169 3168 3166 3163 3161 3161 3160 3159 3158 3156 3154 3153 3152 3151 3151 3151 3150 3150 3148 3148 3149 3146 3146 3144 3132 3123 3120 3114 3110 3109 3106 3105 3104 3102 3100 3097 3095 3092 3088 3086 3083 3080 3077 3074
3195 3194 3194 3194 3193 3193 3192 3192 3191 3191 3190 3190 3189 3189 3189 3189 3189 3189 3189 3189 3188 3188 3188 3187 3187 3187 3186 3185 3185 3184 3183 3182 3182 3181 3180 3178 3177 3176 3176 3175 3174 3172 3171 3170 3168 3167 3166 3163 3161 3160 3159 3158 3156 3154 3153 3151 3151 3150 3149 3149 3149 3148 3147 3147 3147 3146 3145 3144 3136 3126 3119 3111 3107 3107 3105 3104 3102 3099 3097 3094 3091 3089 3086 3083 3080 3077 3075 3072
3196 3195 3195 3194 3194 3194 3193 3193 3192 3192 3191 3191 3191 3190 3190 3190 3190 3190 3190 3190 3189 3189 3189 3188 3188 3187 3187 3186 3185 3184 3184 3183 3182 3181 3180 3179 3177 3176 3176 3174 3173 3172 3171 3169 3168 3166 3165 3163 3161 3158 3158 3157 3154 3153 3151 3149 3149 3148 3147 3148 3147 3147 3146 3145 3144 3143 3143 3142 3140 3134 3121 3108 3104 3106 3104 3102 3100 3098 3095 3091 3089 3087 3083 3081 3078 3075 3072 3069
3196 3196 3195 3195 3195 3194 3194 3193 3193 3193 3192 3192 3191 3191 3191 3191 3191 3191 3191 3191 3190 3190 3190 3189 3189 3188 3187 3187 3186 3185 3184 3183 3182 3181 3180 3179 3178 3177 3176 3174 3173 3172 3170 3169 3167 3166 3164 3162 3159 3157 3156 3155 3153 3151 3150 3148 3148 3147 3146 3146 3145 3145 3145 3143 3141 3139 3139 3139 3137 3136 3124 3106 3101 3104 3102 3100 3099 3096 3094 3090 3086 3084 3081 3078 3076 3073 3070 3067
3197 3196 3196 3195 3195 3195 3194 3194 3194 3193 3193 3192 3192 3192 3192 3192 3192 3192 3192 3191 3191 3191 3190 3190 3189 3189 3188 3187 3186 3185 3184 3183 3182 3181 3180 3179 3178 3177 3176 3174 3173 3171 3170 3168 3167 3165 3163 3160 3157 3155 3154 3153 3151 3149 3148 3147 3146 3146 3145 3144 3143 3143 3142 3142 3140 3136 3136 3136 3132 3135 3126 3104 3097 3101 3099 3097 3097 3094 3092 3088 3084 3081 3079 3076 3073 3070 3067 3065
3198 3197 3196 3196 3195 3195 3195 3195 3194 3194 3193 3193 3193 3193 3193 3193 3193 3193 3192 3192 3192 3191 3191 3190 3190 3189 3188 3187 3186 3185 3184 3183 3181 3181 3180 3179 3178 3176 3175 3174 3172 3171 3169 3167 3165 3164 3162 3159 3156 3152 3151 3150 3149 3148 3147 3146 3145 3144 3143 3141 3141 3140 3138 3139 3137 3134 3134 3130 3128 3133 3123 3099 3094 3100 3097 3095 3095 3092 3090 3087 3082 3080 3077 3073 3071 3067 3065 3062
3199 3198 3198 3197 3196 3196 3196 3195 3195 3195 3194 3194 3194 3194 3194 3194 3194 3193 3193 3193 3192 3192 3191 3191 3190 3189 3188 3187 3186 3185 3184 3183 3181 3180 3179 3178 3177 3176 3174 3173 3171 3170 3168 3166 3165 3163 3161 3159 3156 3152 3149 3146 3145 3145 3145 3144 3143 3141 3140 3139 3138 3137 3136 3135 3134 3133 3131 3123 3123 3128 3115 3095 3093 3097 3094 3094 3093 3090 3088 3085 3081 3078 3074 3071 3068 3065 3062 3060
3200 3199 3199 3198 3197 3197 3197 3196 3196 3195 3195 3195 3195 3195 3194 3194 3194 3194 3193 3193 3192 3192 3191 3190 3190 3189 3188 3187 3186 3185 3184 3183 3181 3180 3179 3178 3176 3175 3173 3172 3170 3169 3167 3166 3164 3162 3160 3158 3157 3155 3152 3149 3146 3143 3142 3140 3139 3137 3136 3136 3135 3134 3134 3132 3131 3130 3126 3119 3118 3117 3105 3092 3092 3094 3092 3093 3091 3086 3084 3082 3079 3076 3072 3069 3066 3062 3060 3057
3200 3199 3199 3198 3198 3198 3197 3197 3196 3196 3196 3196 3195 3195 3195 3194 3194 3194 3193 3193 3192 3192 3191 3190 3189 3188 3187 3186 3185 3185 3183 3182 3181 3179 3178 3177 3175 3174 3172 3171 3169 3167 3166 3164 3162 3160 3157 3155 3155 3154 3151 3150 3146 3143 3141 3139 3135 3133 3133 3132 3132 3130 3129 3129 3128 3124 3120 3117 3113 3105 3098 3093 3091 3090 3090 3090 3088 3083 3080 3077 3075 3073 3070 3067 3063 3060 3057 3054
3200 3199 3199 3199 3198 3198 3197 3197 3197 3196 3196 3196 3196 3195 3195 3195 3195 3194 3194 3193 3192 3192 3191 3190 3189 3188 3187 3186 3185 3184 3182 3181 3180 3178 3177 3175 3174 3172 3171 3169 3168 3166 3164 3162 3160 3158 3155 3151 3151 3150 3146 3145 3144 3142 3140 3137 3133 3130 3130 3129 3128 3127 3126 3124 3122 3118 3117 3116 3107 3098 3097 3095 3089 3088 3088 3087 3085 3081 3076 3074 3072 3069 3067 3064 3060 3057 3054 3051
3200 3199 3199 3199 3198 3198 3197 3197 3197 3196 3196 3196 3196 3196 3195 3195 3194 3194 3193 3193 3192 3191 3190 3189 3188 3187 3186 3185 3184 3183 3181 3179 3178 3177 3175 3173 3172 3170 3169 3167 3166 3163 3162 3160 3158 3156 3153 3148 3146 3145 3142 3140 3141 3140 3138 3135 3131 3128 3128 3127 3126 3124 3122 3119 3115 3113 3113 3111 3102 3097 3098 3093 3088 3088 3088 3085 3083 3079 3074 3072 3069 3066 3064 3060 3057 3054 3051 3048
3200 3199 3199 3198 3198 3198 3198 3197 3197 3197 3196 3196 3196 3196 3195 3195 3194 3194 3193 3192 3192 3191 3190 3189 3188 3187 3186 3184 3183 3182 3180 3177 3176 3174 3173 3171 3170 3168 3166 3164 3163 3161 3160 3158 3156 3154 3151 3146 3144 3142 3138 3136 3138 3138 3135 3132 3129 3126 3125 3125 3123 3120 3118 3114 3111 3110 3108 3104 3099 3097 3096 3091 3088 3088 3086 3083 3081 3076 3072 3069 3066 3064 3062 3057 3054 3051 3047 3045
3200 3199 3199 3199 3198 3198 3198 3198 3197 3197 3197 3197 3196 3196 3195 3195 3194 3194 3193 3192 3191 3190 3189 3188 3187 3186 3185 3184 3183 3181 3179 3177 3176 3173 3172 3170 3168 3167 3165 3162 3161 3159 3158 3156 3154 3152 3150 3146 3143 3141 3136 3132 3133 3134 3133 3131 3127 3124 3121 3121 3119 3117 3115 3111 3108 3107 3104 3101 3098 3097 3093 3089 3088 3087 3083 3079 3077 3073 3069 3066 3063 3061 3058 3055 3051 3047 3044 3041
3200 3200 3200 3200 3199 3199 3199 3198 3198 3198 3197 3197 3196 3196 3195 3195 3194 3193 3192 3191 3191 3190 3189 3187 3186 3185 3184 3183 3182 3180 3178 3177 3175 3173 3171 3169 3167 3166 3164 3161 3160 3158 3156 3154 3152 3150 3148 3145 3142 3141 3136 3131 3131 3131 3130 3128 3125 3120 3118 3117 3116 3114 3111 3108 3106 3104 3102 3099 3097 3095 3092 3088 3086 3085 3081 3076 3073 3070 3065 3062 3059 3057 3055 3051 3047 3044 3041 3038
3201 3200 3200 3200 3200 3199 3199 3198 3198 3198 3197 3197 3196 3196 3195 3194 3193 3192 3192 3191 3190 3189 3188 3186 3185 3184 3183 3182 3180 3179 3177 3175 3174 3172 3170 3168 3166 3165 3163 3160 3158 3156 3154 3152 3150 3148 3147 3144 3142 3141 3136 3131 3130 3130 3127 3124 3120 3117 3115 3115 3113 3111 3108 3106 3104 3102 3101 3098 3096 3093 3090 3087 3085 3082 3078 3073 3069 3065 3061 3058 3056 3054 3051 3047 3044 3041 3037 3034